This is the latest recevied weather packets stored in our database for station/object NY3Q. If no packets are shown the sender has not sent any weather packets the latest 10 day(s).
| Time | Temp. | Humidity | Pressure | Rain* | Wind** | Luminosity | Snow |
|---|---|---|---|---|---|---|---|
| 1777775041 | 16.67° C | 91% | 1014.3 hPa | 0 mm | - | 0 W/m² | - |
| 1777774738 | 16.67° C | 91% | 1014.3 hPa | 0 mm | - | 0 W/m² | - |
| 1777774434 | 16.67° C | 91% | 1014.4 hPa | 0 mm | - | 0 W/m² | - |
| 1777774132 | 16.67° C | 91% | 1014.2 hPa | 0 mm | - | 0 W/m² | - |
| 1777773223 | 16.67° C | 91% | 1014.2 hPa | 0 mm | - | 0 W/m² | - |
| 1777772314 | 16.67° C | 91% | 1013.8 hPa | 0 mm | - | 0 W/m² | - |
| 1777771406 | 16.67° C | 91% | 1013.7 hPa | 0 mm | - | 0 W/m² | - |
| 1777768678 | 17.22° C | 92% | 1013.1 hPa | 0 mm | - | 0 W/m² | - |
| 1777768375 | 17.22° C | 92% | 1012.5 hPa | 0 mm | - | 0 W/m² | - |
| 1777768072 | 17.22° C | 92% | 1012.6 hPa | 0 mm | - | 0 W/m² | - |
| 1777767465 | 17.22° C | 92% | 1012.5 hPa | 0 mm | - | 0 W/m² | - |
| 1777767161 | 17.22° C | 92% | 1012.4 hPa | 0 mm | - | 0 W/m² | - |
| 1777766859 | 17.22° C | 92% | 1012.4 hPa | 0 mm | - | 1 W/m² | - |
| 1777766253 | 17.22° C | 92% | 1011.9 hPa | 0 mm | - | 1 W/m² | - |
| 1777765951 | 17.22° C | 92% | 1012.1 hPa | 0 mm | - | 2 W/m² | - |
| 1777764737 | 17.78° C | 91% | 1012 hPa | 0 mm | - | 4 W/m² | - |
| 1777764433 | 17.78° C | 90% | 1011.4 hPa | 0 mm | - | 5 W/m² | - |
| 1777763827 | 18.33° C | 90% | 1011.2 hPa | 0 mm | - | 6 W/m² | - |
| 1777763525 | 18.89° C | 90% | 1011.3 hPa | 0 mm | - | 7 W/m² | - |
| 1777761707 | 19.44° C | 86% | 1010.5 hPa | 0 mm | - | 18 W/m² | - |
| 1777761405 | 20° C | 85% | 1010.4 hPa | 0 mm | - | 18 W/m² | - |
| 1777761103 | 20.56° C | 83% | 1010.2 hPa | 0 mm | - | 16 W/m² | - |
| 1777760800 | 21.11° C | 83% | 1009.9 hPa | 0 mm | - | 15 W/m² | - |
| 1777760497 | 21.11° C | 83% | 1010 hPa | 0 mm | - | 53 W/m² | - |
| 1777760192 | 21.67° C | 82% | 1009.8 hPa | 0 mm | - | 63 W/m² | - |
* Rain latest hour (hover to see other rain measurements)
** Current wind speed in m/s (hover to see current wind gust speed)